Year,Month,Day,Hour,Minute,Value (Times are PST for temperature in C)
2014,09,14,00,00,13.20
2014,09,14,00,01,13.20
2014,09,14,00,02,13.10
2014,09,14,00,03,13.10
2014,09,14,00,04,13.10
2014,09,14,00,05,13.10
2014,09,14,00,06,13.10
2014,09,14,00,07,13.10
2014,09,14,00,08,13.10
2014,09,14,00,09,13.10
2014,09,14,00,10,13.00
2014,09,14,00,11,13.00
2014,09,14,00,12,13.00
2014,09,14,00,13,12.90
2014,09,14,00,14,12.90
2014,09,14,00,15,12.90
2014,09,14,00,16,12.80
2014,09,14,00,17,12.80
2014,09,14,00,18,12.80
2014,09,14,00,19,12.70
2014,09,14,00,20,12.70
2014,09,14,00,21,12.70
2014,09,14,00,22,12.70
2014,09,14,00,23,12.70
2014,09,14,00,24,12.60
2014,09,14,00,25,12.60
2014,09,14,00,26,12.60
2014,09,14,00,27,12.60
2014,09,14,00,28,12.50
2014,09,14,00,29,12.50
2014,09,14,00,30,12.50
2014,09,14,00,31,12.40
2014,09,14,00,32,12.40
2014,09,14,00,33,12.40
2014,09,14,00,34,12.30
2014,09,14,00,35,12.30
2014,09,14,00,36,12.30
2014,09,14,00,37,12.30
2014,09,14,00,38,12.30
2014,09,14,00,39,12.20
2014,09,14,00,40,12.20
2014,09,14,00,41,12.20
2014,09,14,00,42,12.20
2014,09,14,00,43,12.10
2014,09,14,00,44,12.10
2014,09,14,00,45,12.10
2014,09,14,00,46,12.00
2014,09,14,00,47,12.00
2014,09,14,00,48,11.90
2014,09,14,00,49,11.90
2014,09,14,00,50,11.90
2014,09,14,00,51,11.90
2014,09,14,00,52,11.90
2014,09,14,00,53,11.80
2014,09,14,00,54,11.80
2014,09,14,00,55,11.80
2014,09,14,00,56,11.80
2014,09,14,00,57,11.80
2014,09,14,00,58,11.80
2014,09,14,00,59,11.80
2014,09,14,01,00,11.80
2014,09,14,01,01,11.70
2014,09,14,01,02,11.70
2014,09,14,01,03,11.70
2014,09,14,01,04,11.70
2014,09,14,01,05,11.70
2014,09,14,01,06,11.70
2014,09,14,01,07,11.70
2014,09,14,01,08,11.70
2014,09,14,01,09,11.60
2014,09,14,01,10,11.60
2014,09,14,01,11,11.60
2014,09,14,01,12,11.60
2014,09,14,01,13,11.60
2014,09,14,01,14,11.60
2014,09,14,01,15,11.60
2014,09,14,01,16,11.60
2014,09,14,01,17,11.50
2014,09,14,01,18,11.50
2014,09,14,01,19,11.50
2014,09,14,01,20,11.50
2014,09,14,01,21,11.50
2014,09,14,01,22,11.40
2014,09,14,01,23,11.40
2014,09,14,01,24,11.40
2014,09,14,01,25,11.40
2014,09,14,01,26,11.40
2014,09,14,01,27,11.40
2014,09,14,01,28,11.40
2014,09,14,01,29,11.40
2014,09,14,01,30,11.40
2014,09,14,01,31,11.40
2014,09,14,01,32,11.40
2014,09,14,01,33,11.40
2014,09,14,01,34,11.40
2014,09,14,01,35,11.40
2014,09,14,01,36,11.30
2014,09,14,01,37,11.30
2014,09,14,01,38,11.30
2014,09,14,01,39,11.30
2014,09,14,01,40,11.30
2014,09,14,01,41,11.30
2014,09,14,01,42,11.30
2014,09,14,01,43,11.20
2014,09,14,01,44,11.20
2014,09,14,01,45,11.20
2014,09,14,01,46,11.20
2014,09,14,01,47,11.10
2014,09,14,01,48,11.10
2014,09,14,01,49,11.10
2014,09,14,01,50,11.10
2014,09,14,01,51,11.00
2014,09,14,01,52,11.00
2014,09,14,01,53,11.00
2014,09,14,01,54,10.90
2014,09,14,01,55,10.90
2014,09,14,01,56,10.90
2014,09,14,01,57,10.90
2014,09,14,01,58,10.80
2014,09,14,01,59,10.80
2014,09,14,02,00,10.80
2014,09,14,02,01,10.80
2014,09,14,02,02,10.80
2014,09,14,02,03,10.80
2014,09,14,02,04,10.80
2014,09,14,02,05,10.80
2014,09,14,02,06,10.80
2014,09,14,02,07,10.90
2014,09,14,02,08,10.90
2014,09,14,02,09,10.90
2014,09,14,02,10,10.90
2014,09,14,02,11,10.90
2014,09,14,02,12,10.80
2014,09,14,02,13,10.80
2014,09,14,02,14,10.80
2014,09,14,02,15,10.80
2014,09,14,02,16,10.80
2014,09,14,02,17,10.80
2014,09,14,02,18,10.80
2014,09,14,02,19,10.80
2014,09,14,02,20,10.80
2014,09,14,02,21,10.70
2014,09,14,02,22,10.70
2014,09,14,02,23,10.70
2014,09,14,02,24,10.70
2014,09,14,02,25,10.70
2014,09,14,02,26,10.70
2014,09,14,02,27,10.70
2014,09,14,02,28,10.70
2014,09,14,02,29,10.70
2014,09,14,02,30,10.60
2014,09,14,02,31,10.60
2014,09,14,02,32,10.60
2014,09,14,02,33,10.60
2014,09,14,02,34,10.60
2014,09,14,02,35,10.60
2014,09,14,02,36,10.60
2014,09,14,02,37,10.60
2014,09,14,02,38,10.60
2014,09,14,02,39,10.60
2014,09,14,02,40,10.60
2014,09,14,02,41,10.50
2014,09,14,02,42,10.50
2014,09,14,02,43,10.50
2014,09,14,02,44,10.50
2014,09,14,02,45,10.50
2014,09,14,02,46,10.50
2014,09,14,02,47,10.50
2014,09,14,02,48,10.50
2014,09,14,02,49,10.40
2014,09,14,02,50,10.40
2014,09,14,02,51,10.40
2014,09,14,02,52,10.40
2014,09,14,02,53,10.40
2014,09,14,02,54,10.40
2014,09,14,02,55,10.40
2014,09,14,02,56,10.40
2014,09,14,02,57,10.40
2014,09,14,02,58,10.40
2014,09,14,02,59,10.40
2014,09,14,03,00,10.40
2014,09,14,03,01,10.40
2014,09,14,03,02,10.40
2014,09,14,03,03,10.40
2014,09,14,03,04,10.40
2014,09,14,03,05,10.40
2014,09,14,03,06,10.40
2014,09,14,03,07,10.40
2014,09,14,03,08,10.40
2014,09,14,03,09,10.40
2014,09,14,03,10,10.40
2014,09,14,03,11,10.40
2014,09,14,03,12,10.40
2014,09,14,03,13,10.40
2014,09,14,03,14,10.40
2014,09,14,03,15,10.40
2014,09,14,03,16,10.40
2014,09,14,03,17,10.50
2014,09,14,03,18,10.50
2014,09,14,03,19,10.50
2014,09,14,03,20,10.50
2014,09,14,03,21,10.50
2014,09,14,03,22,10.50
2014,09,14,03,23,10.50
2014,09,14,03,24,10.50
2014,09,14,03,25,10.50
2014,09,14,03,26,10.50
2014,09,14,03,27,10.50
2014,09,14,03,28,10.60
2014,09,14,03,29,10.60
2014,09,14,03,30,10.60
2014,09,14,03,31,10.70
2014,09,14,03,32,10.70
2014,09,14,03,33,10.70
2014,09,14,03,34,10.70
2014,09,14,03,35,10.80
2014,09,14,03,36,10.80
2014,09,14,03,37,10.80
2014,09,14,03,38,10.80
2014,09,14,03,39,10.90
2014,09,14,03,40,10.90
2014,09,14,03,41,10.90
2014,09,14,03,42,11.00
2014,09,14,03,43,11.00
2014,09,14,03,44,11.00
2014,09,14,03,45,11.10
2014,09,14,03,46,11.10
2014,09,14,03,47,11.10
2014,09,14,03,48,11.10
2014,09,14,03,49,11.10
2014,09,14,03,50,11.10
2014,09,14,03,51,11.00
2014,09,14,03,52,11.00
2014,09,14,03,53,11.00
2014,09,14,03,54,10.90
2014,09,14,03,55,10.90
2014,09,14,03,56,10.90
2014,09,14,03,57,10.80
2014,09,14,03,58,10.80
2014,09,14,03,59,10.80
2014,09,14,04,00,10.80
2014,09,14,04,01,10.70
2014,09,14,04,02,10.70
2014,09,14,04,03,10.70
2014,09,14,04,04,10.70
2014,09,14,04,05,10.60
2014,09,14,04,06,10.60
2014,09,14,04,07,10.60
2014,09,14,04,08,10.60
2014,09,14,04,09,10.60
2014,09,14,04,10,10.60
2014,09,14,04,11,10.60
2014,09,14,04,12,10.60
2014,09,14,04,13,10.50
2014,09,14,04,14,10.50
2014,09,14,04,15,10.50
2014,09,14,04,16,10.50
2014,09,14,04,17,10.50
2014,09,14,04,18,10.50
2014,09,14,04,19,10.50
2014,09,14,04,20,10.40
2014,09,14,04,21,10.40
2014,09,14,04,22,10.40
2014,09,14,04,23,10.40
2014,09,14,04,24,10.40
2014,09,14,04,25,10.30
2014,09,14,04,26,10.30
2014,09,14,04,27,10.30
2014,09,14,04,28,10.30
2014,09,14,04,29,10.20
2014,09,14,04,30,10.20
2014,09,14,04,31,10.20
2014,09,14,04,32,10.20
2014,09,14,04,33,10.10
2014,09,14,04,34,10.10
2014,09,14,04,35,10.10
2014,09,14,04,36,10.10
2014,09,14,04,37,10.10
2014,09,14,04,38,10.10
2014,09,14,04,39,10.10
2014,09,14,04,40,10.00
2014,09,14,04,41,10.00
2014,09,14,04,42,10.00
2014,09,14,04,43,10.00
2014,09,14,04,44,10.00
2014,09,14,04,45,10.00
2014,09,14,04,46,10.00
2014,09,14,04,47,10.00
2014,09,14,04,48,10.00
2014,09,14,04,49,10.00
2014,09,14,04,50,10.00
2014,09,14,04,51,10.00
2014,09,14,04,52,10.00
2014,09,14,04,53,10.00
2014,09,14,04,54,10.00
2014,09,14,04,55,10.00
2014,09,14,04,56,9.90
2014,09,14,04,57,9.90
2014,09,14,04,58,9.90
2014,09,14,04,59,9.90
2014,09,14,05,00,9.90
2014,09,14,05,01,9.90
2014,09,14,05,02,9.90
2014,09,14,05,03,9.90
2014,09,14,05,04,9.90
2014,09,14,05,05,9.90
2014,09,14,05,06,9.90
2014,09,14,05,07,9.90
2014,09,14,05,08,9.90
2014,09,14,05,09,10.00
2014,09,14,05,10,10.00
2014,09,14,05,11,10.00
2014,09,14,05,12,10.00
2014,09,14,05,13,10.00
2014,09,14,05,14,10.00
2014,09,14,05,15,10.00
2014,09,14,05,16,10.00
2014,09,14,05,17,10.00
2014,09,14,05,18,9.90
2014,09,14,05,19,9.90
2014,09,14,05,20,9.90
2014,09,14,05,21,9.90
2014,09,14,05,22,9.90
2014,09,14,05,23,9.90
2014,09,14,05,24,9.90
2014,09,14,05,25,9.90
2014,09,14,05,26,9.80
2014,09,14,05,27,9.80
2014,09,14,05,28,9.80
2014,09,14,05,29,9.80
2014,09,14,05,30,9.80
2014,09,14,05,31,9.80
2014,09,14,05,32,9.80
2014,09,14,05,33,9.80
2014,09,14,05,34,9.80
2014,09,14,05,35,9.80
2014,09,14,05,36,9.70
2014,09,14,05,37,9.70
2014,09,14,05,38,9.70
2014,09,14,05,39,9.70
2014,09,14,05,40,9.70
2014,09,14,05,41,9.70
2014,09,14,05,42,9.60
2014,09,14,05,43,9.60
2014,09,14,05,44,9.60
2014,09,14,05,45,9.60
2014,09,14,05,46,9.60
2014,09,14,05,47,9.60
2014,09,14,05,48,9.50
2014,09,14,05,49,9.60
2014,09,14,05,50,9.50
2014,09,14,05,51,9.50
2014,09,14,05,52,9.50
2014,09,14,05,53,9.50
2014,09,14,05,54,9.50
2014,09,14,05,55,9.50
2014,09,14,05,56,9.50
2014,09,14,05,57,9.40
2014,09,14,05,58,9.50
2014,09,14,05,59,9.50
2014,09,14,06,00,9.50
2014,09,14,06,01,9.40
2014,09,14,06,02,9.40
2014,09,14,06,03,9.40
2014,09,14,06,04,9.40
2014,09,14,06,05,9.40
2014,09,14,06,06,9.40
2014,09,14,06,07,9.40
2014,09,14,06,08,9.40
2014,09,14,06,09,9.40
2014,09,14,06,10,9.40
2014,09,14,06,11,9.40
2014,09,14,06,12,9.40
2014,09,14,06,13,9.40
2014,09,14,06,14,9.40
2014,09,14,06,15,9.40
2014,09,14,06,16,9.40
2014,09,14,06,17,9.40
2014,09,14,06,18,9.40
2014,09,14,06,19,9.40
2014,09,14,06,20,9.30
2014,09,14,06,21,9.30
2014,09,14,06,22,9.30
2014,09,14,06,23,9.30
2014,09,14,06,24,9.30
2014,09,14,06,25,9.30
2014,09,14,06,26,9.30
2014,09,14,06,27,9.20
2014,09,14,06,28,9.20
2014,09,14,06,29,9.20
2014,09,14,06,30,9.20
2014,09,14,06,31,9.20
2014,09,14,06,32,9.20
2014,09,14,06,33,9.30
2014,09,14,06,34,9.30
2014,09,14,06,35,9.30
2014,09,14,06,36,9.30
2014,09,14,06,37,9.30
2014,09,14,06,38,9.30
2014,09,14,06,39,9.30
2014,09,14,06,40,9.30
2014,09,14,06,41,9.20
2014,09,14,06,42,9.20
2014,09,14,06,43,9.20
2014,09,14,06,44,9.20
2014,09,14,06,45,9.20
2014,09,14,06,46,9.20
2014,09,14,06,47,9.20
2014,09,14,06,48,9.20
2014,09,14,06,49,9.20
2014,09,14,06,50,9.20
2014,09,14,06,51,9.20
2014,09,14,06,52,9.20
2014,09,14,06,53,9.20
2014,09,14,06,54,9.20
2014,09,14,06,55,9.20
2014,09,14,06,56,9.20
2014,09,14,06,57,9.20
2014,09,14,06,58,9.20
2014,09,14,06,59,9.20
2014,09,14,07,00,9.20
2014,09,14,07,01,9.20
2014,09,14,07,02,9.20
2014,09,14,07,03,9.20
2014,09,14,07,04,9.20
2014,09,14,07,05,9.20
2014,09,14,07,06,9.20
2014,09,14,07,07,9.20
2014,09,14,07,08,9.20
2014,09,14,07,09,9.20
2014,09,14,07,10,9.10
2014,09,14,07,11,9.10
2014,09,14,07,12,9.10
2014,09,14,07,13,9.10
2014,09,14,07,14,9.10
2014,09,14,07,15,9.10
2014,09,14,07,16,9.10
2014,09,14,07,17,9.10
2014,09,14,07,18,9.10
2014,09,14,07,19,9.10
2014,09,14,07,20,9.10
2014,09,14,07,21,9.10
2014,09,14,07,22,9.10
2014,09,14,07,23,9.00
2014,09,14,07,24,9.00
2014,09,14,07,25,9.00
2014,09,14,07,26,9.00
2014,09,14,07,27,9.00
2014,09,14,07,28,9.00
2014,09,14,07,29,9.00
2014,09,14,07,30,9.00
2014,09,14,07,31,9.00
2014,09,14,07,32,9.10
2014,09,14,07,33,9.10
2014,09,14,07,34,9.10
2014,09,14,07,35,9.10
2014,09,14,07,36,9.20
2014,09,14,07,37,9.20
2014,09,14,07,38,9.20
2014,09,14,07,39,9.30
2014,09,14,07,40,9.30
2014,09,14,07,41,9.30
2014,09,14,07,42,9.40
2014,09,14,07,43,9.40
2014,09,14,07,44,9.40
2014,09,14,07,45,9.50
2014,09,14,07,46,9.50
2014,09,14,07,47,9.60
2014,09,14,07,48,9.60
2014,09,14,07,49,9.70
2014,09,14,07,50,9.70
2014,09,14,07,51,9.80
2014,09,14,07,52,9.80
2014,09,14,07,53,9.80
2014,09,14,07,54,9.80
2014,09,14,07,55,9.90
2014,09,14,07,56,10.00
2014,09,14,07,57,10.00
2014,09,14,07,58,10.10
2014,09,14,07,59,10.10
2014,09,14,08,00,10.20
2014,09,14,08,01,10.20
2014,09,14,08,02,10.30
2014,09,14,08,03,10.30
2014,09,14,08,04,10.30
2014,09,14,08,05,10.40
2014,09,14,08,06,10.40
2014,09,14,08,07,10.50
2014,09,14,08,08,10.50
2014,09,14,08,09,10.60
2014,09,14,08,10,10.70
2014,09,14,08,11,10.70
2014,09,14,08,12,10.80
2014,09,14,08,13,10.90
2014,09,14,08,14,10.90
2014,09,14,08,15,11.00
2014,09,14,08,16,11.10
2014,09,14,08,17,11.20
2014,09,14,08,18,11.20
2014,09,14,08,19,11.30
2014,09,14,08,20,11.50
2014,09,14,08,21,11.60
2014,09,14,08,22,11.70
2014,09,14,08,23,12.00
2014,09,14,08,24,12.20
2014,09,14,08,25,12.40
2014,09,14,08,26,12.60
2014,09,14,08,27,12.90
2014,09,14,08,28,13.20
2014,09,14,08,29,13.40
2014,09,14,08,30,13.60
2014,09,14,08,31,13.80
2014,09,14,08,32,14.10
2014,09,14,08,33,14.30
2014,09,14,08,34,14.60
2014,09,14,08,35,14.80
2014,09,14,08,36,15.00
2014,09,14,08,37,15.20
2014,09,14,08,38,15.40
2014,09,14,08,39,15.60
2014,09,14,08,40,15.80
2014,09,14,08,41,16.00
2014,09,14,08,42,16.10
2014,09,14,08,43,16.20
2014,09,14,08,44,16.30
2014,09,14,08,45,16.40
2014,09,14,08,46,16.50
2014,09,14,08,47,16.60
2014,09,14,08,48,16.70
2014,09,14,08,49,16.80
2014,09,14,08,50,16.90
2014,09,14,08,51,17.00
2014,09,14,08,52,17.10
2014,09,14,08,53,17.30
2014,09,14,08,54,17.30
2014,09,14,08,55,17.40
2014,09,14,08,56,17.50
2014,09,14,08,57,17.50
2014,09,14,08,58,17.60
2014,09,14,08,59,17.70
2014,09,14,09,00,17.80
2014,09,14,09,01,17.80
2014,09,14,09,02,17.90
2014,09,14,09,03,18.00
2014,09,14,09,04,18.10
2014,09,14,09,05,18.20
2014,09,14,09,06,18.20
2014,09,14,09,07,18.30
2014,09,14,09,08,18.40
2014,09,14,09,09,18.40
2014,09,14,09,10,18.40
2014,09,14,09,11,18.40
2014,09,14,09,12,18.40
2014,09,14,09,13,18.40
2014,09,14,09,14,18.40
2014,09,14,09,15,18.50
2014,09,14,09,16,18.50
2014,09,14,09,17,18.60
2014,09,14,09,18,18.60
2014,09,14,09,19,18.60
2014,09,14,09,20,18.60
2014,09,14,09,21,18.70
2014,09,14,09,22,18.70
2014,09,14,09,23,18.70
2014,09,14,09,24,18.80
2014,09,14,09,25,18.80
2014,09,14,09,26,18.90
2014,09,14,09,27,18.90
2014,09,14,09,28,19.00
2014,09,14,09,29,19.10
2014,09,14,09,30,19.20
2014,09,14,09,31,19.20
2014,09,14,09,32,19.30
2014,09,14,09,33,19.30
2014,09,14,09,34,19.40
2014,09,14,09,35,19.40
2014,09,14,09,36,19.50
2014,09,14,09,37,19.60
2014,09,14,09,38,19.60
2014,09,14,09,39,19.60
2014,09,14,09,40,19.70
2014,09,14,09,41,19.70
2014,09,14,09,42,19.80
2014,09,14,09,43,19.80
2014,09,14,09,44,19.80
2014,09,14,09,45,19.90
2014,09,14,09,46,19.90
2014,09,14,09,47,19.90
2014,09,14,09,48,20.00
2014,09,14,09,49,20.10
2014,09,14,09,50,20.10
2014,09,14,09,51,20.10
2014,09,14,09,52,20.20
2014,09,14,09,53,20.20
2014,09,14,09,54,20.30
2014,09,14,09,55,20.30
2014,09,14,09,56,20.30
2014,09,14,09,57,20.30
2014,09,14,09,58,20.40
2014,09,14,09,59,20.40
2014,09,14,10,00,20.40
2014,09,14,10,01,20.50
2014,09,14,10,02,20.50
2014,09,14,10,03,20.50
2014,09,14,10,04,20.50
2014,09,14,10,05,20.60
2014,09,14,10,06,20.60
2014,09,14,10,07,20.60
2014,09,14,10,08,20.70
2014,09,14,10,09,20.70
2014,09,14,10,10,20.70
2014,09,14,10,11,20.80
2014,09,14,10,12,20.80
2014,09,14,10,13,20.80
2014,09,14,10,14,20.90
2014,09,14,10,15,20.90
2014,09,14,10,16,21.00
2014,09,14,10,17,21.10
2014,09,14,10,18,21.10
2014,09,14,10,19,21.10
2014,09,14,10,20,21.20
2014,09,14,10,21,21.20
2014,09,14,10,22,21.30
2014,09,14,10,23,21.30
2014,09,14,10,24,21.30
2014,09,14,10,25,21.30
2014,09,14,10,26,21.30
2014,09,14,10,27,21.40
2014,09,14,10,28,21.40
2014,09,14,10,29,21.40
2014,09,14,10,30,21.40
2014,09,14,10,31,21.50
2014,09,14,10,32,21.50
2014,09,14,10,33,21.50
2014,09,14,10,34,21.50
2014,09,14,10,35,21.60
2014,09,14,10,36,21.60
2014,09,14,10,37,21.70
2014,09,14,10,38,21.70
2014,09,14,10,39,21.80
2014,09,14,10,40,21.90
2014,09,14,10,41,21.90
2014,09,14,10,42,22.00
2014,09,14,10,43,22.00
2014,09,14,10,44,22.00
2014,09,14,10,45,22.00
2014,09,14,10,46,22.00
2014,09,14,10,47,22.10
2014,09,14,10,48,22.10
2014,09,14,10,49,22.20
2014,09,14,10,50,22.20
2014,09,14,10,51,22.20
2014,09,14,10,52,22.20
2014,09,14,10,53,22.20
2014,09,14,10,54,22.20
2014,09,14,10,55,22.30
2014,09,14,10,56,22.30
2014,09,14,10,57,22.30
2014,09,14,10,58,22.40
2014,09,14,10,59,22.40
2014,09,14,11,00,22.40
2014,09,14,11,01,22.40
2014,09,14,11,02,22.40
2014,09,14,11,03,22.50
2014,09,14,11,04,22.50
2014,09,14,11,05,22.50
2014,09,14,11,06,22.60
2014,09,14,11,07,22.60
2014,09,14,11,08,22.60
2014,09,14,11,09,22.60
2014,09,14,11,10,22.60
2014,09,14,11,11,22.70
2014,09,14,11,12,22.70
2014,09,14,11,13,22.70
2014,09,14,11,14,22.70
2014,09,14,11,15,22.70
2014,09,14,11,16,22.70
2014,09,14,11,17,22.70
2014,09,14,11,18,22.70
2014,09,14,11,19,22.70
2014,09,14,11,20,22.70
2014,09,14,11,21,22.80
2014,09,14,11,22,22.80
2014,09,14,11,23,22.90
2014,09,14,11,24,23.00
2014,09,14,11,25,23.10
2014,09,14,11,26,23.20
2014,09,14,11,27,23.30
2014,09,14,11,28,23.30
2014,09,14,11,29,23.40
2014,09,14,11,30,23.40
2014,09,14,11,31,23.50
2014,09,14,11,32,23.60
2014,09,14,11,33,23.70
2014,09,14,11,34,23.80
2014,09,14,11,35,23.80
2014,09,14,11,36,23.90
2014,09,14,11,37,23.90
2014,09,14,11,38,24.00
2014,09,14,11,39,24.00
2014,09,14,11,40,23.90
2014,09,14,11,41,23.90
2014,09,14,11,42,23.80
2014,09,14,11,43,23.80
2014,09,14,11,44,23.80
2014,09,14,11,45,23.80
2014,09,14,11,46,23.80
2014,09,14,11,47,23.80
2014,09,14,11,48,23.80
2014,09,14,11,49,23.80
2014,09,14,11,50,23.80
2014,09,14,11,51,23.80
2014,09,14,11,52,23.80
2014,09,14,11,53,23.80
2014,09,14,11,54,23.80
2014,09,14,11,55,23.80
2014,09,14,11,56,23.90
2014,09,14,11,57,24.00
2014,09,14,11,58,24.10
2014,09,14,11,59,24.20
2014,09,14,12,00,24.10
2014,09,14,12,01,24.10
2014,09,14,12,02,24.00
2014,09,14,12,03,24.00
2014,09,14,12,04,24.10
2014,09,14,12,05,24.10
2014,09,14,12,06,24.10
2014,09,14,12,07,24.20
2014,09,14,12,08,24.20
2014,09,14,12,09,24.30
2014,09,14,12,10,24.30
2014,09,14,12,11,24.30
2014,09,14,12,12,24.40
2014,09,14,12,13,24.40
2014,09,14,12,14,24.40
2014,09,14,12,15,24.40
2014,09,14,12,16,24.50
2014,09,14,12,17,24.60
2014,09,14,12,18,24.60
2014,09,14,12,19,24.70
2014,09,14,12,20,24.80
2014,09,14,12,21,24.80
2014,09,14,12,22,24.80
2014,09,14,12,23,24.70
2014,09,14,12,24,24.70
2014,09,14,12,25,24.70
2014,09,14,12,26,24.80
2014,09,14,12,27,24.80
2014,09,14,12,28,24.90
2014,09,14,12,29,24.90
2014,09,14,12,30,24.90
2014,09,14,12,31,24.90
2014,09,14,12,32,24.90
2014,09,14,12,33,25.00
2014,09,14,12,34,25.00
2014,09,14,12,35,25.00
2014,09,14,12,36,24.90
2014,09,14,12,37,24.90
2014,09,14,12,38,24.80
2014,09,14,12,39,24.80
2014,09,14,12,40,24.90
2014,09,14,12,41,24.90
2014,09,14,12,42,24.90
2014,09,14,12,43,24.90
2014,09,14,12,44,24.90
2014,09,14,12,45,24.90
2014,09,14,12,46,24.90
2014,09,14,12,47,24.90
2014,09,14,12,48,24.90
2014,09,14,12,49,24.90
2014,09,14,12,50,25.00
2014,09,14,12,51,25.00
2014,09,14,12,52,25.10
2014,09,14,12,53,25.20
2014,09,14,12,54,25.30
2014,09,14,12,55,25.30
2014,09,14,12,56,25.40
2014,09,14,12,57,25.40
2014,09,14,12,58,25.40
2014,09,14,12,59,25.40
2014,09,14,13,00,25.40
2014,09,14,13,01,25.30
2014,09,14,13,02,25.30
2014,09,14,13,03,25.30
2014,09,14,13,04,25.30
2014,09,14,13,05,25.30
2014,09,14,13,06,25.20
2014,09,14,13,07,25.20
2014,09,14,13,08,25.10
2014,09,14,13,09,25.10
2014,09,14,13,10,25.10
2014,09,14,13,11,25.10
2014,09,14,13,12,25.10
2014,09,14,13,13,25.10
2014,09,14,13,14,25.10
2014,09,14,13,15,25.10
2014,09,14,13,16,25.20
2014,09,14,13,17,25.20
2014,09,14,13,18,25.20
2014,09,14,13,19,25.20
2014,09,14,13,20,25.20
2014,09,14,13,21,25.20
2014,09,14,13,22,25.20
2014,09,14,13,23,25.10
2014,09,14,13,24,25.10
2014,09,14,13,25,25.00
2014,09,14,13,26,24.90
2014,09,14,13,27,24.90
2014,09,14,13,28,25.00
2014,09,14,13,29,25.00
2014,09,14,13,30,25.00
2014,09,14,13,31,25.00
2014,09,14,13,32,25.00
2014,09,14,13,33,24.90
2014,09,14,13,34,24.90
2014,09,14,13,35,24.90
2014,09,14,13,36,24.90
2014,09,14,13,37,24.90
2014,09,14,13,38,25.00
2014,09,14,13,39,25.00
2014,09,14,13,40,25.10
2014,09,14,13,41,25.10
2014,09,14,13,42,25.10
2014,09,14,13,43,25.10
2014,09,14,13,44,25.10
2014,09,14,13,45,25.10
2014,09,14,13,46,25.20
2014,09,14,13,47,25.20
2014,09,14,13,48,25.20
2014,09,14,13,49,25.20
2014,09,14,13,50,25.20
2014,09,14,13,51,25.30
2014,09,14,13,52,25.30
2014,09,14,13,53,25.30
2014,09,14,13,54,25.30
2014,09,14,13,55,25.30
2014,09,14,13,56,25.40
2014,09,14,13,57,25.40
2014,09,14,13,58,25.40
2014,09,14,13,59,25.50
2014,09,14,14,00,25.50
2014,09,14,14,01,25.60
2014,09,14,14,02,25.60
2014,09,14,14,03,25.60
2014,09,14,14,04,25.50
2014,09,14,14,05,25.40
2014,09,14,14,06,25.40
2014,09,14,14,07,25.40
2014,09,14,14,08,25.40
2014,09,14,14,09,25.40
2014,09,14,14,10,25.40
2014,09,14,14,11,25.40
2014,09,14,14,12,25.40
2014,09,14,14,13,25.50
2014,09,14,14,14,25.50
2014,09,14,14,15,25.50
2014,09,14,14,16,25.60
2014,09,14,14,17,25.60
2014,09,14,14,18,25.60
2014,09,14,14,19,25.70
2014,09,14,14,20,25.80
2014,09,14,14,21,25.80
2014,09,14,14,22,25.80
2014,09,14,14,23,25.90
2014,09,14,14,24,25.90
2014,09,14,14,25,25.90
2014,09,14,14,26,26.00
2014,09,14,14,27,26.10
2014,09,14,14,28,26.10
2014,09,14,14,29,26.10
2014,09,14,14,30,26.10
2014,09,14,14,31,26.10
2014,09,14,14,32,26.10
2014,09,14,14,33,26.10
2014,09,14,14,34,26.00
2014,09,14,14,35,26.00
2014,09,14,14,36,26.00
2014,09,14,14,37,26.00
2014,09,14,14,38,26.00
2014,09,14,14,39,25.90
2014,09,14,14,40,25.90
2014,09,14,14,41,25.80
2014,09,14,14,42,25.80
2014,09,14,14,43,25.80
2014,09,14,14,44,25.90
2014,09,14,14,45,25.90
2014,09,14,14,46,25.90
2014,09,14,14,47,25.90
2014,09,14,14,48,25.90
2014,09,14,14,49,25.90
2014,09,14,14,50,25.80
2014,09,14,14,51,25.90
2014,09,14,14,52,25.90
2014,09,14,14,53,25.90
2014,09,14,14,54,25.90
2014,09,14,14,55,25.90
2014,09,14,14,56,25.90
2014,09,14,14,57,26.00
2014,09,14,14,58,26.00
2014,09,14,14,59,26.10
2014,09,14,15,00,26.20
2014,09,14,15,01,26.20
2014,09,14,15,02,26.20
2014,09,14,15,03,26.20
2014,09,14,15,04,26.20
2014,09,14,15,05,26.20
2014,09,14,15,06,26.20
2014,09,14,15,07,26.20
2014,09,14,15,08,26.30
2014,09,14,15,09,26.30
2014,09,14,15,10,26.40
2014,09,14,15,11,26.40
2014,09,14,15,12,26.40
2014,09,14,15,13,26.40
2014,09,14,15,14,26.30
2014,09,14,15,15,26.20
2014,09,14,15,16,26.20
2014,09,14,15,17,26.10
2014,09,14,15,18,26.10
2014,09,14,15,19,26.10
2014,09,14,15,20,26.10
2014,09,14,15,21,26.10
2014,09,14,15,22,26.10
2014,09,14,15,23,26.10
2014,09,14,15,24,26.10
2014,09,14,15,25,26.10
2014,09,14,15,26,26.10
2014,09,14,15,27,26.10
2014,09,14,15,28,26.10
2014,09,14,15,29,26.10
2014,09,14,15,30,26.10
2014,09,14,15,31,26.10
2014,09,14,15,32,26.10
2014,09,14,15,33,26.10
2014,09,14,15,34,26.10
2014,09,14,15,35,26.10
2014,09,14,15,36,26.10
2014,09,14,15,37,26.10
2014,09,14,15,38,26.10
2014,09,14,15,39,26.10
2014,09,14,15,40,26.10
2014,09,14,15,41,26.10
2014,09,14,15,42,26.10
2014,09,14,15,43,26.10
2014,09,14,15,44,26.10
2014,09,14,15,45,26.10
2014,09,14,15,46,26.10
2014,09,14,15,47,26.10
2014,09,14,15,48,26.10
2014,09,14,15,49,26.20
2014,09,14,15,50,26.20
2014,09,14,15,51,26.20
2014,09,14,15,52,26.10
2014,09,14,15,53,26.10
2014,09,14,15,54,26.10
2014,09,14,15,55,26.10
2014,09,14,15,56,26.00
2014,09,14,15,57,26.00
2014,09,14,15,58,26.00
2014,09,14,15,59,25.90
2014,09,14,16,00,25.90
2014,09,14,16,01,25.90
2014,09,14,16,02,25.90
2014,09,14,16,03,26.00
2014,09,14,16,04,26.00
2014,09,14,16,05,26.00
2014,09,14,16,06,26.00
2014,09,14,16,07,26.00
2014,09,14,16,08,26.10
2014,09,14,16,09,26.20
2014,09,14,16,10,26.20
2014,09,14,16,11,26.20
2014,09,14,16,12,26.20
2014,09,14,16,13,26.20
2014,09,14,16,14,26.10
2014,09,14,16,15,26.10
2014,09,14,16,16,26.10
2014,09,14,16,17,26.10
2014,09,14,16,18,26.00
2014,09,14,16,19,26.00
2014,09,14,16,20,26.00
2014,09,14,16,21,25.90
2014,09,14,16,22,25.90
2014,09,14,16,23,25.80
2014,09,14,16,24,25.80
2014,09,14,16,25,25.80
2014,09,14,16,26,25.80
2014,09,14,16,27,25.80
2014,09,14,16,28,25.70
2014,09,14,16,29,25.70
2014,09,14,16,30,25.70
2014,09,14,16,31,25.70
2014,09,14,16,32,25.70
2014,09,14,16,33,25.70
2014,09,14,16,34,25.80
2014,09,14,16,35,25.80
2014,09,14,16,36,25.80
2014,09,14,16,37,25.80
2014,09,14,16,38,25.80
2014,09,14,16,39,25.80
2014,09,14,16,40,25.80
2014,09,14,16,41,25.80
2014,09,14,16,42,25.80
2014,09,14,16,43,25.80
2014,09,14,16,44,25.80
2014,09,14,16,45,25.80
2014,09,14,16,46,25.80
2014,09,14,16,47,25.80
2014,09,14,16,48,25.80
2014,09,14,16,49,25.80
2014,09,14,16,50,25.90
2014,09,14,16,51,25.90
2014,09,14,16,52,25.90
2014,09,14,16,53,25.80
2014,09,14,16,54,25.80
2014,09,14,16,55,25.80
2014,09,14,16,56,25.80
2014,09,14,16,57,25.70
2014,09,14,16,58,25.60
2014,09,14,16,59,25.60
2014,09,14,17,00,25.50
2014,09,14,17,01,25.50
2014,09,14,17,02,25.40
2014,09,14,17,03,25.40
2014,09,14,17,04,25.40
2014,09,14,17,05,25.30
2014,09,14,17,06,25.30
2014,09,14,17,07,25.30
2014,09,14,17,08,25.30
2014,09,14,17,09,25.30
2014,09,14,17,10,25.30
2014,09,14,17,11,25.30
2014,09,14,17,12,25.30
2014,09,14,17,13,25.30
2014,09,14,17,14,25.20
2014,09,14,17,15,25.20
2014,09,14,17,16,25.20
2014,09,14,17,17,25.20
2014,09,14,17,18,25.10
2014,09,14,17,19,25.10
2014,09,14,17,20,25.10
2014,09,14,17,21,25.10
2014,09,14,17,22,25.10
2014,09,14,17,23,25.10
2014,09,14,17,24,25.10
2014,09,14,17,25,25.10
2014,09,14,17,26,25.10